C/2020 H3 ( Wierzchos )

Japanese version
Home page
Updated on May 24, 2020

---------------------------------------------------------------------

* Profile

Discovery Date April 25, 2020
Magnitude 19.1 mag
Discoverer Kacper W. Wierzchos (Mount Lemmon Survey)

* Orbital Elements

Epoch 2020 May 31.0 TT = JDT 2459000.5
T 2020 June 3.55172 TT                                  Rudenko
q   2.3038827            (2000.0)            P               Q
z  -0.0002155      Peri.   29.60111     +0.23765195     +0.39855704
 +/-0.0010643      Node   270.55945     -0.96970487     +0.15040561
e   1.0004964      Incl.   62.35759     +0.05651562     +0.90472672
From 17 observations 2020 May 3-19, mean residual 0".4.

* Magnitudes Graph

        m1 = 13.5 + 5 log d + 10.0 log r

---------------------------------------------------------------------

The orbital elements are published on M.P.E.C. 2020-K117.
The magnitudes graphs are made with Comet for Windows.

---------------------------------------------------------------------

Copyright(C) Seiichi Yoshida (comet@aerith.net). All rights reserved.